Location: *
(50.3440°N, 18.6237°E)
Time: 17:30:02
(UTC+00:00)

Cosmos 1943 - Pass Details

Date: 30 November 2020
Orbit: 832 x 851 km, 71.0° (Epoch: 17 January)

Event Time Altitude Azimuth Distance (km) Brightness Sun altitude
Rises 18:06:35 0° 221° (SW) 3,386 6.8 -31.2°
Reaches altitude 10° 18:09:03 10° 225° (SW) 2,458 6.1 -31.6°
Enters shadow 18:14:07 56° 282° (WNW) 1,006 3.7 -32.4°
